Torna al catalogo

STARLINK-35710

AttivoComunicazioniVLEO
NORAD 66212·PAYLOAD·🇺🇸 United States

Lanciato Oct 28, 2025 da Vandenberg Space Force Base

Loading…

Prossimi Passaggi (prossime 24 ore)

TLE

AggiornatoSource: CelesTrak SupGP

Epoca: Sep 14, 2026, 22:45 UTC

1 66212C 25244G   26257.94840278  .00034885  00000+0  10310-2 0  2579
2 66212  53.1584  69.8535 0001170  85.0934 132.8073 15.34365266    15

Traccia STARLINK-35710 in tempo reale con AllMySat

Download on the App Store